カタログに戻る

STARLINK-34595

運用中通信VLEO
NORAD 64749·PAYLOAD·🇺🇸 United States

打ち上げ Jul 2, 2025 から Cape Canaveral Space Force Station

Loading…

次のパス (今後24時間)

TLE

最新Source: CelesTrak SupGP

元期: Sep 15, 2026, 02:49 UTC

1 64749C 25144AB  26258.11784722  .00034422  00000+0  10171-2 0  2585
2 64749  53.1599  20.5321 0001284  89.1666 248.8156 15.34369428    18

AllMySatでSTARLINK-34595をリアルタイム追跡

Download on the App Store